Weather History for Orangeburg, SC

Change the Weather History Date:

Sunday, October 9, 2011

  Actual Average Record
Temperature  
Mean Temperature 70 °F 68 °F  
Max Temperature 77 °F 79 °F 91 °F (2007)
Min Temperature 62 °F 56 °F 37 °F (1978)
Degree Days  
Heating Degree Days 0 1  
Month to date heating degree days 23 9  
Since 1 July heating degree days 24 13  
Cooling Degree Days 5 4  
Month to date cooling degree days 12 45  
Year to date cooling degree days 2446 2039  
Growing Degree Days 18 (Base 50)    
Moisture  
Dew Point 58 °F    
Average Humidity 66    
Maximum Humidity 78    
Minimum Humidity 52    
Precipitation  
Precipitation T in 0.13 in 1.35 in (1950)
Month to date precipitation T 1.30  
Year to date precipitation 32.24 38.40  
Sea Level Pressure  
Sea Level Pressure 30.23 in    
Wind  
Wind Speed 11 mph (NE)    
Max Wind Speed 18 mph    
Max Gust Speed 26 mph    
Visibility 10 miles    
Events      
T = Trace of Precipitation, MM = Missing Value Source: NWS Daily Summary

Daily Weather History Graph

Daily Weather History Graph

Search for Another Location

Airport:

Trip Planner

Search our weather history database for the weather conditions in past years. The results will help you decide how hot, cold, wet, or windy it might be!

Date:

Astronomy

Oct. 09, 2011 Rise Set
Actual Time 7:23 AM EDT 6:57 PM EDT
Civil Twilight 6:58 AM EDT 7:22 PM EDT
Nautical Twilight 6:29 AM EDT 7:51 PM EDT
Astronomical Twilight 6:00 AM EDT 8:20 PM EDT
Moon 5:30 PM EDT (10/9) 5:11 AM EDT (10/9)
Length of Visible Light 12h 24m
Length of Day
11h 34m
Waxing Gibbous, 95% of the Moon is Illuminated
Oct 9
Waxing Gibbous
Oct 11
Full
Oct 19
Last Quarter
Oct 26
New
Nov 2
First Quarter

Hourly Weather History & Observations

Time (EDT) Temp. Dew Point Humidity Pressure Visibility Wind Dir Wind Speed Gust Speed Precip Events Conditions
12:53 AM 64.0 °F 46.0 °F 52% 30.30 in 10.0 mi NE 9.2 mph - N/A   Clear
3:53 AM 64.0 °F 53.1 °F 67% 30.28 in 10.0 mi ENE 8.1 mph - N/A   Clear
4:53 AM 63.0 °F 54.0 °F 72% 30.27 in 10.0 mi NE 9.2 mph - N/A   Clear
5:53 AM 62.1 °F 55.0 °F 78% 30.28 in 10.0 mi NE 9.2 mph - N/A   Clear
7:53 AM 62.1 °F 55.0 °F 78% 30.27 in 10.0 mi NE 9.2 mph - N/A   Clear
9:53 AM 66.9 °F 55.9 °F 68% 30.30 in 10.0 mi NE 10.4 mph 17.3 mph N/A   Scattered Clouds
10:53 AM 70.0 °F 57.0 °F 63% 30.30 in 10.0 mi NE 15.0 mph 23.0 mph N/A   Clear
11:53 AM 71.1 °F 57.9 °F 63% 30.29 in 10.0 mi ENE 12.7 mph 21.9 mph N/A   Mostly Cloudy
12:53 PM 70.0 °F 59.0 °F 68% 30.27 in 10.0 mi ENE 9.2 mph - 0.00 in   Overcast
1:53 PM 72.0 °F 59.0 °F 64% 30.24 in 10.0 mi NE 11.5 mph - N/A   Overcast
2:53 PM 75.0 °F 60.1 °F 60% 30.21 in 10.0 mi NE 11.5 mph 20.7 mph N/A   Scattered Clouds
3:53 PM 75.9 °F 61.0 °F 60% 30.19 in 10.0 mi ENE 15.0 mph 20.7 mph 0.00 in   Overcast
4:53 PM 75.9 °F 60.1 °F 58% 30.17 in 10.0 mi NE 11.5 mph 18.4 mph N/A   Partly Cloudy
5:53 PM 75.0 °F 61.0 °F 62% 30.16 in 10.0 mi ENE 8.1 mph - N/A   Mostly Cloudy
6:53 PM 73.9 °F 61.0 °F 64% 30.16 in 10.0 mi ENE 5.8 mph - N/A   Overcast
7:53 PM 72.0 °F 61.0 °F 68% 30.16 in 10.0 mi NE 6.9 mph - N/A   Partly Cloudy
8:53 PM 72.0 °F 61.0 °F 68% 30.16 in 10.0 mi ENE 11.5 mph 18.4 mph N/A   Mostly Cloudy
10:53 PM 71.1 °F 60.1 °F 68% 30.15 in 10.0 mi ENE 11.5 mph 19.6 mph N/A   Partly Cloudy
11:53 PM 71.1 °F 61.0 °F 70% 30.16 in 10.0 mi ENE 12.7 mph 19.6 mph N/A   Clear